Find Starlink 5961

NORAD ID: 56914 Int'l Des: 2023-083 Owner: SPXS Country: US Constellation: starlink operational
LEOCIRCULAR

Live Position

Loading 3D Globe...

About Starlink 5961

Description loading...

Upcoming Passes

Passes for default location (London). Set your location on the main map for personalized predictions.

Altitude History

Loading altitude history...

Two-Line Element Set

1 56914U 23083AQ 26104.50002315 -.00017111 00000-0 -61374-3 0 9997
2 56914 43.0022 228.0473 0001907 278.5217 291.0496 15.27576277 5682
Epoch: Apr 14, 2026 • Age: 6 hours

Current Status

Altitude 482.8 km
Velocity 7.63 km/s
Sub-Earth Point 3.89°N, 72.34°W
Launch Date Jun 12, 2023
Age 2.8 years
Type internet

Technical Details

Classification Payload
Mass 305.00 kg
Dry Mass 290.00 kg
Total Mass 305.00 kg
Length 0.20 m
Diameter 2.80 m
Span 9.00 m
Shape Box + pan
Manufacturer SPXS
Bus Type Starlink
Phase Status In Orbit
Owner/State SPXS/US

Most Searched